Weather History for PAJN - February, 2014

Change the Weather History Date:

Saturday, February 1, 2014

  Actual Average Record
Temperature  
Mean Temperature 28 °F 29 °F  
Max Temperature 34 °F 34 °F 44 °F (1977)
Min Temperature 22 °F 24 °F -14 °F (1968)
Degree Days  
Heating Degree Days 37 36  
Month to date heating degree days 37 36  
Since 1 July heating degree days 4536 4896  
Moisture  
Dew Point 24 °F    
Average Humidity 91    
Maximum Humidity 100    
Minimum Humidity 81    
Precipitation  
Precipitation T in 0.16 in 1.40 in (1959)
Month to date precipitation T 0.16  
Year to date precipitation 10.15 5.51  
Snow  
Snow T in 0.80 in 6.50 in (1961)
Month to date snowfall T 0.8  
Since 1 July snowfall 64.0 58.0  
Snow Depth 0.00 in    
Sea Level Pressure  
Sea Level Pressure 30.27 in    
Wind  
Wind Speed 2 mph (NW)    
Max Wind Speed 9 mph    
Max Gust Speed 11 mph    
Visibility 6 miles    
Events Fog , Snow    
T = Trace of Precipitation, MM = Missing Value Source: NWS Daily Summary

Daily Weather History Graph

Daily Weather History Graph

Search for Another Location

Airport or City:

Trip Planner

Search our weather history database for the weather conditions in past years. The results will help you decide how hot, cold, wet, or windy it might be!

Date:

Astronomy

Feb. 01, 2014 Rise Set
Actual Time 8:03 AM AKST 4:21 PM AKST
Civil Twilight 7:18 AM AKST 5:06 PM AKST
Nautical Twilight 6:30 AM AKST 5:54 PM AKST
Astronomical Twilight 5:44 AM AKST 6:40 PM AKST
Moon 8:16 AM AKST (2/1) 7:53 PM AKST (2/1)
Length of Visible Light 9h 47m
Length of Day
8h 18m
Waxing Crescent, 6% of the Moon is Illuminated
Feb 1
Waxing Crescent
Feb 6
First Quarter
Feb 14
Full
Feb 22
Last Quarter
Feb 28
New

Hourly Weather History & Observations

Time (AKST) Temp. Windchill Dew Point Humidity Pressure Visibility Wind Dir Wind Speed Gust Speed Precip Events Conditions
12:05 AM 28.0 °F - 26.1 °F 92% 30.20 in 10.0 mi Calm Calm - N/A   Overcast
12:53 AM 28.0 °F 24.2 °F 26.1 °F 92% 30.20 in 10.0 mi WNW 3.5 mph - N/A   Overcast
1:53 AM 28.0 °F 24.2 °F 26.1 °F 92% 30.21 in 10.0 mi NW 3.5 mph - N/A   Overcast
3:53 AM 27.0 °F 20.5 °F 25.0 °F 92% 30.22 in 9.0 mi NW 5.8 mph - N/A   Overcast
4:20 AM 25.0 °F 18.1 °F 24.1 °F 96% 30.23 in 0.5 mi WNW 5.8 mph - 0.00 in Fog , Snow Light Snow
4:36 AM 26.1 °F 21.9 °F 24.1 °F 92% 30.22 in 3.0 mi WNW 3.5 mph - 0.00 in Fog , Snow Light Snow
4:53 AM 25.0 °F 19.3 °F 23.0 °F 92% 30.23 in 9.0 mi NW 4.6 mph - 0.00 in Fog , Snow Light Snow
5:21 AM 25.0 °F - 24.1 °F 96% 30.23 in 0.2 mi Calm Calm - 0.00 in Fog Light Freezing Fog
5:34 AM 25.0 °F 18.1 °F 23.0 °F 92% 30.24 in 0.5 mi WNW 5.8 mph - 0.00 in Fog , Snow Light Snow
5:43 AM 25.0 °F 19.3 °F 24.1 °F 96% 30.23 in 4.0 mi WNW 4.6 mph - 0.00 in Snow Light Snow
5:53 AM 25.0 °F 20.7 °F 24.1 °F 96% 30.23 in 4.0 mi NW 3.5 mph - 0.00 in   Scattered Clouds
6:12 AM 25.0 °F 20.7 °F 23.0 °F 92% 30.24 in 2.0 mi WNW 3.5 mph - N/A   Overcast
6:31 AM 24.1 °F 18.2 °F 23.0 °F 96% 30.24 in 1.0 mi NW 4.6 mph - N/A   Overcast
6:48 AM 24.8 °F 19.1 °F 23.0 °F 93% 30.24 in 2.0 mi North 4.6 mph - N/A   Mostly Cloudy
6:53 AM 24.1 °F - 23.0 °F 96% 30.24 in 2.0 mi Calm Calm - N/A   Mostly Cloudy
7:20 AM 25.0 °F - 25.0 °F 100% 30.24 in 0.5 mi Calm Calm - N/A Fog Light Freezing Fog
7:53 AM 25.0 °F 19.3 °F 23.0 °F 92% 30.25 in 0.2 mi WNW 4.6 mph - N/A Fog Light Freezing Fog
8:12 AM 25.0 °F - 21.9 °F 88% 30.24 in 2.0 mi Calm Calm - N/A   Mist
8:31 AM 25.0 °F - 23.0 °F 92% 30.25 in 4.0 mi Calm Calm - N/A   Mostly Cloudy
8:53 AM 25.0 °F - 21.0 °F 85% 30.26 in 8.0 mi Calm Calm - N/A Fog Patches of Fog
9:42 AM 26.1 °F - 21.9 °F 84% 30.27 in 2.0 mi Calm Calm - N/A   Mist
9:53 AM 26.1 °F 20.5 °F 21.9 °F 84% 30.28 in 2.0 mi West 4.6 mph - N/A   Overcast
10:07 AM 26.1 °F - 24.1 °F 92% 30.28 in 2.0 mi Calm Calm - N/A   Mostly Cloudy
10:12 AM 27.0 °F 23.0 °F 24.1 °F 89% 30.28 in 10.0 mi WNW 3.5 mph - N/A   Scattered Clouds
10:53 AM 28.0 °F - 24.1 °F 85% 30.28 in 10.0 mi Calm Calm - N/A Fog Patches of Fog
11:53 AM 30.0 °F 26.5 °F 26.1 °F 85% 30.28 in 10.0 mi WSW 3.5 mph - N/A   Partly Cloudy
12:53 PM 30.9 °F - 28.0 °F 89% 30.29 in 10.0 mi Calm Calm - N/A   Partly Cloudy
1:53 PM 32.0 °F - 30.0 °F 92% 30.29 in 10.0 mi Calm Calm - N/A   Partly Cloudy
2:53 PM 33.1 °F - 30.0 °F 89% 30.30 in 10.0 mi Calm Calm - N/A   Partly Cloudy
3:53 PM 30.0 °F 25.2 °F 28.0 °F 92% 30.30 in 10.0 mi SE 4.6 mph - N/A   Partly Cloudy
4:53 PM 30.0 °F 26.5 °F 28.0 °F 92% 30.31 in 10.0 mi East 3.5 mph - N/A   Scattered Clouds
5:53 PM 28.9 °F - 27.0 °F 92% 30.31 in 10.0 mi Calm Calm - N/A   Partly Cloudy
6:53 PM 27.0 °F - 26.1 °F 96% 30.32 in 10.0 mi Calm Calm - N/A Fog Patches of Fog
7:53 PM 27.0 °F 23.0 °F 25.0 °F 92% 30.32 in 4.0 mi East 3.5 mph - N/A   Scattered Clouds
8:10 PM 25.0 °F 20.7 °F 24.1 °F 96% 30.32 in 0.5 mi ESE 3.5 mph - N/A Fog Light Freezing Fog
8:46 PM 25.0 °F - 23.0 °F 92% 30.32 in 4.0 mi Calm Calm - N/A   Scattered Clouds
8:53 PM 24.1 °F - 21.0 °F 88% 30.32 in 4.0 mi Calm Calm - N/A   Scattered Clouds
9:53 PM 25.0 °F - 21.9 °F 88% 30.33 in 10.0 mi Calm Calm - N/A Fog Patches of Fog
10:53 PM 24.1 °F - 21.9 °F 91% 30.33 in 10.0 mi Calm Calm - N/A Fog Patches of Fog
11:53 PM 23.0 °F - 19.9 °F 88% 30.34 in 10.0 mi Calm Calm - N/A   Clear